Date String (YYYY-MM-DD hh:mm:ss) UTC,Instrument flags,Ambient pressure (hPa),Sample flow (lpm),Bypass flow (lpm),Sample temperature (°C),Ambient temperature (°C),ASC tube jacket temperature (°C),LED temperature (°C),Box temperature (°C),Sample RH (%),Span deviation,Mass concentration (μg/m³),Mass concentration (μg/m³),Mass concentration (μg/m³)
DateTimeUTC,F1_M11,P_M11,Q1_M11,Q2_M11,T1_M11,T2_M11,T3_M11,T4_M11,T5_M11,U1_M11,ZSPAN_M11,X0_M11,X2_M11,X1_M11
2023-01-26 16:00:00,,0828.3,4.99,0.00,21.6,20.6,00.0,30.3,23.2,06.1,0000.0,0001.55,0001.05,0000.87
2023-01-26 16:01:00,,0828.3,5.01,0.00,21.6,20.3,00.0,30.3,23.2,06.1,0000.0,0001.47,0001.03,0000.87
2023-01-26 16:02:00,,0828.2,5.00,0.00,21.6,20.0,00.0,30.3,23.1,05.9,0000.0,0001.45,0001.01,0000.86
2023-01-26 16:03:00,,0828.2,4.99,0.00,21.5,19.8,00.0,30.3,23.0,05.9,0000.0,0001.56,0001.05,0000.85
2023-01-26 16:04:00,,0828.3,5.01,0.00,21.5,19.6,00.0,30.3,23.0,05.9,0000.0,0001.64,0001.09,0000.88
2023-01-26 16:05:00,,0828.2,5.01,0.00,21.4,19.4,00.0,30.3,22.9,06.1,0000.0,0001.74,0001.13,0000.89
2023-01-26 16:06:00,,0828.2,5.01,0.00,21.4,19.3,00.0,30.3,22.9,06.1,0000.0,0001.68,0001.12,0000.89
2023-01-26 16:07:00,,0828.5,5.01,0.00,21.4,19.2,00.0,30.3,22.8,06.2,0000.0,0001.68,0001.13,0000.89
2023-01-26 16:08:00,,0828.2,5.03,0.00,21.4,20.1,00.0,30.2,22.9,06.1,0000.0,0001.76,0001.12,0000.89
2023-01-26 16:09:00,,0828.4,5.00,0.00,21.5,21.9,00.0,30.2,23.3,06.0,0000.0,0002.38,0001.16,0000.90
2023-01-26 16:10:00,,0828.2,4.99,0.00,21.6,22.6,00.0,30.3,23.6,05.9,0000.0,0002.50,0001.18,0000.91
2023-01-26 16:11:00,,0828.2,5.00,0.00,21.7,21.9,00.0,30.3,23.5,05.9,0000.0,0002.69,0001.21,0000.90
2023-01-26 16:12:00,,0828.2,5.00,0.00,21.7,21.2,00.0,30.4,23.4,06.1,0000.0,0002.75,0001.21,0000.90
2023-01-26 16:13:00,,0828.1,4.99,0.00,21.6,20.6,00.0,30.4,23.3,06.1,0000.0,0003.16,0001.22,0000.90
2023-01-26 16:14:00,,0828.2,5.02,0.00,21.6,20.2,00.0,30.4,23.2,05.7,0000.0,0003.36,0001.24,0000.92
2023-01-26 16:15:00,,0828.1,5.00,0.00,21.6,19.9,00.0,30.4,23.1,06.2,0000.0,0003.37,0001.26,0000.94
2023-01-26 16:16:00,,0828.2,5.00,0.00,21.5,19.7,00.0,30.3,23.1,06.1,0000.0,0003.54,0001.26,0000.95
2023-01-26 16:17:00,,0828.2,5.00,0.00,21.5,19.6,00.0,30.3,23.0,05.9,0000.0,0003.64,0001.28,0000.96
2023-01-26 16:18:00,,0828.3,5.02,0.00,21.5,19.5,00.0,30.3,23.0,05.9,0000.0,0003.70,0001.30,0000.97
2023-01-26 16:19:00,,0828.1,4.99,0.00,21.4,19.5,00.0,30.3,23.0,05.9,0000.0,0003.86,0001.35,0000.97
2023-01-26 16:20:00,,0828.2,4.98,0.00,21.4,19.4,00.0,30.3,23.0,06.0,0000.0,0003.41,0001.35,0000.98
2023-01-26 16:21:00,,0828.2,5.01,0.00,21.4,19.4,00.0,30.3,22.9,06.2,0000.0,0003.15,0001.34,0000.98
2023-01-26 16:22:00,,0828.2,5.03,0.00,21.4,19.4,00.0,30.2,22.9,06.0,0000.0,0003.62,0001.29,0000.99
2023-01-26 16:23:00,,0828.1,5.00,0.00,21.3,19.4,00.0,30.2,22.9,05.6,0000.0,0003.77,0001.28,0000.99
2023-01-26 16:24:00,,0828.0,5.02,0.00,21.4,20.3,00.0,30.2,23.0,05.9,0000.0,0003.55,0001.32,0001.00
2023-01-26 16:25:00,,0828.0,5.00,0.00,21.5,21.9,00.0,30.2,23.3,05.5,0000.0,0003.25,0001.29,0000.99
2023-01-26 16:26:00,,0828.0,5.00,0.00,21.6,22.6,00.0,30.3,23.6,05.7,0000.0,0003.24,0001.26,0000.97
2023-01-26 16:27:00,,0828.0,4.97,0.00,21.7,21.9,00.0,30.3,23.6,05.8,0000.0,0003.15,0001.27,0000.96
2023-01-26 16:28:00,,0828.1,4.96,0.00,21.7,21.7,00.0,30.3,23.5,05.6,0000.0,0003.08,0001.27,0000.96
2023-01-26 16:29:00,,0828.0,4.99,0.00,21.7,20.8,00.0,30.4,23.3,05.3,0000.0,0003.04,0001.27,0000.96
2023-01-26 16:30:00,,0827.9,5.00,0.00,21.6,20.4,00.0,30.4,23.2,05.3,0000.0,0003.04,0001.26,0000.95
2023-01-26 16:31:00,,0828.0,5.01,0.00,21.6,20.1,00.0,30.4,23.1,05.3,0000.0,0003.01,0001.24,0000.95
2023-01-26 16:32:00,,0827.9,5.00,0.00,21.6,19.9,00.0,30.3,23.1,05.5,0000.0,0003.09,0001.25,0000.95
2023-01-26 16:33:00,,0827.9,5.00,0.00,21.5,19.7,00.0,30.3,23.0,05.3,0000.0,0003.10,0001.26,0000.95
2023-01-26 16:34:00,,0827.9,5.00,0.00,21.5,19.6,00.0,30.3,23.0,05.5,0000.0,0002.63,0001.27,0000.95
2023-01-26 16:35:00,,0827.9,5.01,0.00,21.5,19.6,00.0,30.3,23.0,05.7,0000.0,0003.77,0001.29,0000.96
2023-01-26 16:36:00,,0828.0,5.00,0.00,21.5,19.6,00.0,30.3,23.0,05.8,0000.0,0004.10,0001.25,0000.96
2023-01-26 16:37:00,,0827.8,4.96,0.00,21.5,19.6,00.0,30.3,23.0,05.8,0000.0,0004.09,0001.25,0000.95
2023-01-26 16:38:00,,0827.8,5.02,0.00,21.4,19.6,00.0,30.3,23.0,05.8,0000.0,0005.14,0001.24,0000.95
2023-01-26 16:39:00,,0827.8,5.02,0.00,21.4,19.5,00.0,30.3,22.9,05.6,0000.0,0005.31,0001.22,0000.95
2023-01-26 16:40:00,,0827.9,5.01,0.00,21.3,19.4,00.0,30.2,22.8,05.8,0000.0,0005.21,0001.20,0000.94
2023-01-26 16:41:00,,0827.9,5.00,0.00,21.3,19.5,00.0,30.2,22.8,05.6,0000.0,0005.11,0001.16,0000.93
2023-01-26 16:42:00,,0827.9,5.01,0.00,21.4,21.0,00.0,30.2,23.1,05.9,0000.0,0005.06,0001.16,0000.93
2023-01-26 16:43:00,,0827.9,5.02,0.00,21.5,22.5,00.0,30.3,23.4,06.0,0000.0,0004.89,0001.12,0000.92
2023-01-26 16:44:00,,0827.9,5.01,0.00,21.7,22.5,00.0,30.3,23.7,05.9,0000.0,0004.88,0001.11,0000.92
2023-01-26 16:45:00,,0827.9,4.99,0.00,21.7,22.0,00.0,30.3,23.7,05.6,0000.0,0004.78,0001.10,0000.92
2023-01-26 16:46:00,,0827.9,5.01,0.00,21.7,21.5,00.0,30.4,23.5,05.5,0000.0,0003.46,0001.07,0000.90
2023-01-26 16:47:00,,0827.7,5.00,0.00,21.7,21.1,00.0,30.4,23.5,05.7,0000.0,0002.87,0001.08,0000.89
2023-01-26 16:48:00,,0827.8,5.01,0.00,21.7,20.8,00.0,30.4,23.4,05.6,0000.0,0002.97,0001.06,0000.89
2023-01-26 16:49:00,,0827.7,4.99,0.00,21.7,20.6,00.0,30.4,23.4,05.8,0000.0,0002.08,0001.02,0000.88
2023-01-26 16:50:00,,0827.7,5.01,0.00,21.7,20.5,00.0,30.4,23.4,05.7,0000.0,0001.65,0001.02,0000.86
2023-01-26 16:51:00,,0827.7,4.99,0.00,21.7,20.5,00.0,30.4,23.4,05.4,0000.0,0001.63,0000.99,0000.85
2023-01-26 16:52:00,,0827.7,5.01,0.00,21.7,20.4,00.0,30.4,23.4,05.5,0000.0,0001.65,0001.00,0000.84
2023-01-26 16:53:00,,0827.7,4.99,0.00,21.7,20.3,00.0,30.5,23.4,05.7,0000.0,0001.56,0000.97,0000.84
2023-01-26 16:54:00,,0827.6,5.01,0.00,21.7,20.2,00.0,30.5,23.3,05.7,0000.0,0001.54,0000.95,0000.83
2023-01-26 16:55:00,,0827.7,5.00,0.00,21.7,20.2,00.0,30.5,23.3,05.9,0000.0,0001.50,0000.93,0000.81
2023-01-26 16:56:00,,0827.5,5.01,0.00,21.7,20.2,00.0,30.4,23.3,05.9,0000.0,0001.62,0000.95,0000.80
2023-01-26 16:57:00,,0827.5,4.97,0.00,21.7,20.1,00.0,30.4,23.3,05.7,0000.0,0001.60,0000.93,0000.79
2023-01-26 16:58:00,,0827.5,4.99,0.00,21.7,20.1,00.0,30.4,23.3,05.9,0000.0,0001.54,0000.90,0000.78
2023-01-26 16:59:00,,0827.5,4.99,0.00,21.6,20.0,00.0,30.4,23.2,05.8,0000.0,0001.38,0000.87,0000.76
